 ,�O�C���x[��],����1,�O�C���x[��],����2,���ԉ��x[��],����3,���Ԏ��x[��],����4,�m��2(��󒲎�)���x[��],����5,����[��],����6
2003/9/1 0:00,17.4,0 ,98,0 ,25.8,0 ,62,0 ,25.6,0 ,23.9,0
2003/9/1 0:15,17.4,0 ,98,0 ,26,0 ,64,0 ,25.6,0 ,23.9,0
2003/9/1 0:30,17.5,0 ,98,0 ,25.8,0 ,62,0 ,25.6,0 ,24,0
2003/9/1 0:45,17.5,0 ,99,0 ,25.9,0 ,64,0 ,25.5,0 ,24,0
2003/9/1 1:00,17.4,0 ,99,0 ,25.7,0 ,62,0 ,25.5,0 ,24,0
2003/9/1 1:15,17.4,0 ,99,0 ,25.9,0 ,64,0 ,25.5,0 ,24.1,0
2003/9/1 1:30,17.3,0 ,99,0 ,25.7,0 ,62,0 ,25.5,0 ,24.1,0
2003/9/1 1:45,17.3,0 ,99,0 ,25.8,0 ,64,0 ,25.4,0 ,24.1,0
2003/9/1 2:00,17.4,0 ,99,0 ,25.7,0 ,62,0 ,25.4,0 ,24.2,0
2003/9/1 2:15,17.4,0 ,99,0 ,25.8,0 ,64,0 ,25.4,0 ,24.2,0
2003/9/1 2:30,17.4,0 ,99,0 ,25.7,0 ,62,0 ,25.4,0 ,24.2,0
2003/9/1 2:45,17.5,0 ,98,0 ,25.8,0 ,64,0 ,25.4,0 ,24.3,0
2003/9/1 3:00,17.5,0 ,97,0 ,25.7,0 ,62,0 ,25.4,0 ,24.3,0
2003/9/1 3:15,17.5,0 ,98,0 ,25.8,0 ,64,0 ,25.3,0 ,24.3,0
2003/9/1 3:30,17.6,0 ,98,0 ,25.6,0 ,62,0 ,25.3,0 ,24.3,0
2003/9/1 3:45,17.6,0 ,98,0 ,25.8,0 ,64,0 ,25.3,0 ,24.4,0
2003/9/1 4:00,17.6,0 ,97,0 ,25.6,0 ,62,0 ,25.3,0 ,24.4,0
2003/9/1 4:15,17.7,0 ,98,0 ,25.8,0 ,64,0 ,25.3,0 ,24.4,0
2003/9/1 4:30,17.7,0 ,98,0 ,25.6,0 ,62,0 ,25.2,0 ,24.5,0
2003/9/1 4:45,17.6,0 ,99,0 ,25.7,0 ,64,0 ,25.2,0 ,24.5,0
2003/9/1 5:00,17.6,0 ,99,0 ,25.6,0 ,62,0 ,25.2,0 ,24.5,0
2003/9/1 5:15,17.6,0 ,99,0 ,25.8,0 ,65,0 ,25.2,0 ,24.5,0
2003/9/1 5:30,17.5,0 ,99,0 ,25.6,0 ,62,0 ,25.2,0 ,24.4,0
2003/9/1 5:45,17.5,0 ,99,0 ,25.8,0 ,65,0 ,25.3,0 ,24,0
2003/9/1 6:00,17.5,0 ,99,0 ,25.6,0 ,65,0 ,25.2,0 ,24.1,0
2003/9/1 6:15,17.5,0 ,99,0 ,25.8,0 ,68,0 ,25.2,0 ,24.1,0
2003/9/1 6:30,17.6,0 ,99,0 ,25.6,0 ,66,0 ,25.3,0 ,24.1,0
2003/9/1 6:45,17.8,0 ,99,0 ,25.8,0 ,70,0 ,25.3,0 ,24.2,0
2003/9/1 7:00,17.9,0 ,98,0 ,25.7,0 ,68,0 ,25.3,0 ,23.8,0
2003/9/1 7:15,17.8,0 ,96,0 ,25.8,0 ,71,0 ,25.3,0 ,23.9,0
2003/9/1 7:30,18,0 ,94,0 ,25.6,0 ,68,0 ,25.3,0 ,23.6,0
2003/9/1 7:45,18.1,0 ,93,0 ,25.8,0 ,71,0 ,25.3,0 ,23.6,0
2003/9/1 8:00,18.2,0 ,92,0 ,25.6,0 ,68,0 ,25.4,0 ,23.7,0
2003/9/1 8:15,18.3,0 ,92,0 ,25.8,0 ,71,0 ,25.5,0 ,23.7,0
2003/9/1 8:30,18.4,0 ,91,0 ,25.6,0 ,68,0 ,25.5,0 ,23.7,0
2003/9/1 8:45,18.6,0 ,91,0 ,25.8,0 ,71,0 ,25.6,0 ,23.8,0
2003/9/1 9:00,18.7,0 ,90,0 ,25.6,0 ,68,0 ,25.6,0 ,23.8,0
2003/9/1 9:15,19,0 ,88,0 ,25.8,0 ,70,0 ,25.5,0 ,23.8,0
2003/9/1 9:30,19,0 ,86,0 ,25.6,0 ,67,0 ,25.5,0 ,23.9,0
2003/9/1 9:45,19,0 ,87,0 ,25.7,0 ,69,0 ,25.4,0 ,23.9,0
2003/9/1 10:00,18.9,0 ,87,0 ,25.5,0 ,66,0 ,25.4,0 ,23.9,0
2003/9/1 10:15,18.9,0 ,86,0 ,25.7,0 ,69,0 ,25.4,0 ,23.9,0
2003/9/1 10:30,19,0 ,85,0 ,25.6,0 ,66,0 ,25.3,0 ,23.9,0
2003/9/1 10:45,19.1,0 ,85,0 ,25.7,0 ,68,0 ,25.3,0 ,23.9,0
2003/9/1 11:00,19.2,0 ,85,0 ,25.5,0 ,65,0 ,25.3,0 ,23.9,0
2003/9/1 11:15,19.3,0 ,84,0 ,25.7,0 ,68,0 ,25.2,0 ,24,0
2003/9/1 11:30,19.5,0 ,83,0 ,25.6,0 ,65,0 ,25.2,0 ,24,0
2003/9/1 11:45,19.7,0 ,82,0 ,25.8,0 ,68,0 ,25.2,0 ,24,0
2003/9/1 12:00,20,0 ,80,0 ,25.6,0 ,65,0 ,25.2,0 ,24.1,0
2003/9/1 12:15,20,0 ,80,0 ,25.8,0 ,68,0 ,25.2,0 ,24.1,0
2003/9/1 12:30,20.2,0 ,80,0 ,25.8,0 ,66,0 ,25.4,0 ,24.1,0
2003/9/1 12:45,20.2,0 ,80,0 ,26,0 ,69,0 ,25.4,0 ,24.2,0
2003/9/1 13:00,20.3,0 ,80,0 ,25.8,0 ,67,0 ,25.4,0 ,24.2,0
2003/9/1 13:15,20.4,0 ,80,0 ,25.9,0 ,69,0 ,25.3,0 ,24.2,0
2003/9/1 13:30,20.5,0 ,79,0 ,25.7,0 ,66,0 ,25.3,0 ,24.3,0
2003/9/1 13:45,20.7,0 ,80,0 ,25.8,0 ,68,0 ,25.3,0 ,24.3,0
2003/9/1 14:00,20.7,0 ,80,0 ,25.7,0 ,65,0 ,25.3,0 ,24.3,0
2003/9/1 14:15,20.7,0 ,80,0 ,25.8,0 ,68,0 ,25.3,0 ,24.3,0
2003/9/1 14:30,20.7,0 ,80,0 ,25.7,0 ,65,0 ,25.2,0 ,24.4,0
2003/9/1 14:45,20.7,0 ,81,0 ,25.8,0 ,67,0 ,25.2,0 ,24.4,0
2003/9/1 15:00,20.7,0 ,81,0 ,25.6,0 ,64,0 ,25.2,0 ,24.4,0
2003/9/1 15:15,20.8,0 ,82,0 ,25.8,0 ,67,0 ,25.2,0 ,24.4,0
2003/9/1 15:30,20.8,0 ,82,0 ,25.6,0 ,64,0 ,25.2,0 ,24.5,0
2003/9/1 15:45,20.7,0 ,83,0 ,25.8,0 ,66,0 ,25.2,0 ,24.5,0
2003/9/1 16:00,20.6,0 ,83,0 ,25.6,0 ,64,0 ,25.1,0 ,24.5,0
2003/9/1 16:15,20.7,0 ,83,0 ,25.9,0 ,69,0 ,25.3,0 ,24.5,0
2003/9/1 16:30,20.7,0 ,83,0 ,25.7,0 ,66,0 ,25.3,0 ,24.3,0
2003/9/1 16:45,20.7,0 ,84,0 ,25.8,0 ,68,0 ,25.2,0 ,24.4,0
2003/9/1 17:00,20.7,0 ,84,0 ,25.6,0 ,64,0 ,25.2,0 ,24.4,0
2003/9/1 17:15,20.6,0 ,85,0 ,25.7,0 ,67,0 ,25.2,0 ,24.4,0
2003/9/1 17:30,20.4,0 ,86,0 ,25.6,0 ,64,0 ,25.2,0 ,24.4,0
2003/9/1 17:45,20.3,0 ,87,0 ,25.7,0 ,67,0 ,25.2,0 ,24.5,0
2003/9/1 18:00,20.1,0 ,88,0 ,25.6,0 ,64,0 ,25.1,0 ,24.5,0
2003/9/1 18:15,20,0 ,89,0 ,25.7,0 ,66,0 ,25.1,0 ,23.3,0
2003/9/1 18:30,19.9,0 ,89,0 ,25.6,0 ,64,0 ,25.2,0 ,23.4,0
2003/9/1 18:45,19.9,0 ,90,0 ,25.8,0 ,70,0 ,25.3,0 ,23.4,0
2003/9/1 19:00,19.9,0 ,90,0 ,25.7,0 ,67,0 ,25.3,0 ,23.5,0
2003/9/1 19:15,19.8,0 ,90,0 ,26,0 ,69,0 ,25.3,0 ,23.5,0
2003/9/1 19:30,19.8,0 ,90,0 ,25.9,0 ,66,0 ,25.3,0 ,23.6,0
2003/9/1 19:45,19.8,0 ,90,0 ,26.1,0 ,69,0 ,25.3,0 ,23.4,0
2003/9/1 20:00,19.8,0 ,89,0 ,25.8,0 ,66,0 ,25.4,0 ,23.5,0
2003/9/1 20:15,19.7,0 ,91,0 ,26,0 ,69,0 ,25.4,0 ,23.5,0
2003/9/1 20:30,19.6,0 ,92,0 ,25.9,0 ,70,0 ,25.5,0 ,23.3,0
2003/9/1 20:45,19.6,0 ,92,0 ,26.1,0 ,73,0 ,25.5,0 ,23.3,0
2003/9/1 21:00,19.6,0 ,92,0 ,25.9,0 ,70,0 ,25.5,0 ,23.4,0
2003/9/1 21:15,19.5,0 ,92,0 ,26.1,0 ,71,0 ,25.5,0 ,23.3,0
2003/9/1 21:30,19.5,0 ,92,0 ,25.8,0 ,71,0 ,25.6,0 ,23.3,0
2003/9/1 21:45,19.5,0 ,92,0 ,26.2,0 ,76,0 ,25.8,0 ,23.4,0
2003/9/1 22:00,19.5,0 ,91,0 ,26.1,0 ,82,0 ,26.1,0 ,23.4,0
2003/9/1 22:15,19.5,0 ,91,0 ,26.3,0 ,79,0 ,26.1,0 ,23.4,0
2003/9/1 22:30,19.5,0 ,91,0 ,26.1,0 ,76,0 ,26.1,0 ,23.5,0
2003/9/1 22:45,19.6,0 ,91,0 ,26.1,0 ,77,0 ,26,0 ,23.5,0
2003/9/1 23:00,19.6,0 ,90,0 ,26,0 ,74,0 ,26,0 ,23.6,0
2003/9/1 23:15,19.6,0 ,91,0 ,26.1,0 ,76,0 ,26,0 ,23.6,0
2003/9/1 23:30,19.6,0 ,91,0 ,26,0 ,74,0 ,25.9,0 ,23.7,0
2003/9/1 23:45,19.7,0 ,91,0 ,26.1,0 ,75,0 ,25.9,0 ,23.7,0
2003/9/2 0:00,19.7,0 ,90,0 ,25.9,0 ,73,0 ,25.9,0 ,23.8,0
2003/9/2 0:15,19.6,0 ,91,0 ,26.1,0 ,75,0 ,25.9,0 ,23.8,0
2003/9/2 0:30,19.6,0 ,91,0 ,25.9,0 ,73,0 ,25.8,0 ,23.9,0
2003/9/2 0:45,19.6,0 ,92,0 ,26.1,0 ,75,0 ,25.8,0 ,23.9,0
2003/9/2 1:00,19.5,0 ,93,0 ,25.8,0 ,73,0 ,25.8,0 ,23.9,0
2003/9/2 1:15,19.5,0 ,93,0 ,26,0 ,74,0 ,25.8,0 ,24,0
2003/9/2 1:30,19.5,0 ,93,0 ,25.9,0 ,72,0 ,25.7,0 ,24,0
2003/9/2 1:45,19.4,0 ,95,0 ,26,0 ,74,0 ,25.7,0 ,24.1,0
2003/9/2 2:00,19.4,0 ,96,0 ,25.8,0 ,72,0 ,25.7,0 ,24.1,0
2003/9/2 2:15,19.3,0 ,98,0 ,26,0 ,74,0 ,25.7,0 ,24.2,0
2003/9/2 2:30,19.2,0 ,99,0 ,25.8,0 ,72,0 ,25.6,0 ,24.2,0
2003/9/2 2:45,19.2,0 ,99,0 ,26,0 ,73,0 ,25.6,0 ,24.2,0
2003/9/2 3:00,19.2,0 ,99,0 ,25.8,0 ,72,0 ,25.6,0 ,24.3,0
2003/9/2 3:15,19.2,0 ,99,0 ,25.9,0 ,74,0 ,25.6,0 ,24.3,0
2003/9/2 3:30,19.3,0 ,99,0 ,25.8,0 ,72,0 ,25.6,0 ,24.3,0
2003/9/2 3:45,19.3,0 ,99,0 ,25.9,0 ,73,0 ,25.6,0 ,24.4,0
2003/9/2 4:00,19.4,0 ,99,0 ,25.7,0 ,72,0 ,25.5,0 ,24.4,0
2003/9/2 4:15,19.4,0 ,99,0 ,25.9,0 ,73,0 ,25.5,0 ,24.5,0
2003/9/2 4:30,19.4,0 ,99,0 ,25.7,0 ,71,0 ,25.5,0 ,24.5,0
2003/9/2 4:45,19.4,0 ,99,0 ,25.9,0 ,73,0 ,25.5,0 ,24.5,0
2003/9/2 5:00,19.5,0 ,99,0 ,25.7,0 ,71,0 ,25.5,0 ,24.5,0
2003/9/2 5:15,19.5,0 ,99,0 ,25.9,0 ,73,0 ,25.5,0 ,24.6,0
2003/9/2 5:30,19.5,0 ,99,0 ,25.7,0 ,72,0 ,25.5,0 ,24.3,0
2003/9/2 5:45,19.5,0 ,99,0 ,25.9,0 ,74,0 ,25.5,0 ,24.5,0
2003/9/2 6:00,19.6,0 ,99,0 ,25.7,0 ,68,0 ,25.6,0 ,24.5,0
2003/9/2 6:15,19.7,0 ,99,0 ,25.7,0 ,70,0 ,25.5,0 ,23.8,0
2003/9/2 6:30,19.8,0 ,98,0 ,25.6,0 ,67,0 ,25.5,0 ,23.8,0
2003/9/2 6:45,19.9,0 ,97,0 ,25.7,0 ,69,0 ,25.5,0 ,23.9,0
2003/9/2 7:00,19.9,0 ,96,0 ,25.5,0 ,67,0 ,25.5,0 ,23,0
2003/9/2 7:15,20.2,0 ,93,0 ,25.8,0 ,73,0 ,25.6,0 ,22.9,0
2003/9/2 7:30,20.4,0 ,89,0 ,25.7,0 ,72,0 ,25.6,0 ,23,0
2003/9/2 7:45,20.7,0 ,88,0 ,25.9,0 ,74,0 ,25.7,0 ,23,0
2003/9/2 8:00,20.9,0 ,87,0 ,25.7,0 ,73,0 ,25.7,0 ,23.1,0
2003/9/2 8:15,21,0 ,83,0 ,25.9,0 ,74,0 ,25.7,0 ,23.1,0
2003/9/2 8:30,21.6,0 ,79,0 ,25.7,0 ,72,0 ,25.7,0 ,23.2,0
2003/9/2 8:45,22.1,0 ,77,0 ,25.9,0 ,74,0 ,25.6,0 ,23.2,0
2003/9/2 9:00,22.7,0 ,74,0 ,25.8,0 ,72,0 ,25.6,0 ,23.3,0
2003/9/2 9:15,23.2,0 ,73,0 ,26.1,0 ,74,0 ,25.6,0 ,23.3,0
2003/9/2 9:30,23.6,0 ,72,0 ,25.9,0 ,72,0 ,25.6,0 ,23.4,0
2003/9/2 9:45,24.4,0 ,71,0 ,26.1,0 ,74,0 ,25.6,0 ,23.4,0
2003/9/2 10:00,24.7,0 ,70,0 ,26,0 ,72,0 ,25.6,0 ,23.5,0
2003/9/2 10:15,24.7,0 ,70,0 ,26.1,0 ,74,0 ,25.6,0 ,23.5,0
2003/9/2 10:30,24.9,0 ,69,0 ,26,0 ,72,0 ,25.6,0 ,23.6,0
2003/9/2 10:45,25.3,0 ,66,0 ,26.1,0 ,74,0 ,25.6,0 ,23.6,0
2003/9/2 11:00,26.2,0 ,63,0 ,26,0 ,72,0 ,25.6,0 ,23.7,0
2003/9/2 11:15,26.4,0 ,63,0 ,26.2,0 ,74,0 ,25.6,0 ,23.7,0
2003/9/2 11:30,26.6,0 ,63,0 ,26,0 ,72,0 ,25.6,0 ,23.8,0
2003/9/2 11:45,26.8,0 ,63,0 ,26.2,0 ,74,0 ,25.6,0 ,23.8,0
2003/9/2 12:00,26.9,0 ,62,0 ,26.1,0 ,73,0 ,25.6,0 ,23.8,0
2003/9/2 12:15,26.9,0 ,62,0 ,26.2,0 ,74,0 ,25.6,0 ,23.9,0
2003/9/2 12:30,27,0 ,62,0 ,26.1,0 ,73,0 ,25.6,0 ,23.9,0
2003/9/2 12:45,27.2,0 ,61,0 ,26.2,0 ,74,0 ,25.6,0 ,24,0
2003/9/2 13:00,27.4,0 ,59,0 ,26.1,0 ,72,0 ,25.6,0 ,24,0
2003/9/2 13:15,27.7,0 ,59,0 ,26.3,0 ,74,0 ,25.6,0 ,24.1,0
2003/9/2 13:30,27.8,0 ,59,0 ,26.1,0 ,72,0 ,25.6,0 ,24.1,0
2003/9/2 13:45,27.7,0 ,59,0 ,26.3,0 ,74,0 ,25.6,0 ,24.1,0
2003/9/2 14:00,27.8,0 ,59,0 ,26.1,0 ,72,0 ,25.6,0 ,24.2,0
2003/9/2 14:15,28,0 ,59,0 ,26.3,0 ,74,0 ,25.7,0 ,24.2,0
2003/9/2 14:30,28.1,0 ,59,0 ,26.2,0 ,72,0 ,25.7,0 ,24.2,0
2003/9/2 14:45,28.2,0 ,58,0 ,26.3,0 ,74,0 ,25.7,0 ,24.3,0
2003/9/2 15:00,28.4,0 ,57,0 ,26.2,0 ,72,0 ,25.7,0 ,24.3,0
2003/9/2 15:15,28.5,0 ,58,0 ,26.3,0 ,74,0 ,25.7,0 ,24.4,0
2003/9/2 15:30,28.5,0 ,59,0 ,26.2,0 ,72,0 ,25.7,0 ,24.4,0
2003/9/2 15:45,28.4,0 ,60,0 ,26.3,0 ,74,0 ,25.7,0 ,24.4,0
2003/9/2 16:00,28.4,0 ,60,0 ,26.2,0 ,72,0 ,25.7,0 ,24.5,0
2003/9/2 16:15,28.1,0 ,66,0 ,26.3,0 ,74,0 ,25.7,0 ,24.5,0
2003/9/2 16:30,27.5,0 ,72,0 ,26.2,0 ,73,0 ,25.8,0 ,24.5,0
2003/9/2 16:45,27.2,0 ,73,0 ,26.3,0 ,75,0 ,25.8,0 ,24.6,0
2003/9/2 17:00,26.9,0 ,74,0 ,26.2,0 ,73,0 ,25.8,0 ,24.6,0
2003/9/2 17:15,26.3,0 ,76,0 ,26.3,0 ,76,0 ,25.8,0 ,24.6,0
2003/9/2 17:30,26,0 ,77,0 ,26.2,0 ,74,0 ,25.8,0 ,24.7,0
2003/9/2 17:45,25.5,0 ,79,0 ,26.3,0 ,76,0 ,25.8,0 ,24.7,0
2003/9/2 18:00,25,0 ,81,0 ,26.1,0 ,74,0 ,25.8,0 ,24.7,0
2003/9/2 18:15,24.7,0 ,82,0 ,26.3,0 ,75,0 ,25.7,0 ,24.8,0
2003/9/2 18:30,24.4,0 ,83,0 ,26.1,0 ,74,0 ,25.7,0 ,24.8,0
2003/9/2 18:45,24.1,0 ,85,0 ,26.2,0 ,75,0 ,25.7,0 ,24.8,0
2003/9/2 19:00,23.8,0 ,86,0 ,26,0 ,73,0 ,25.7,0 ,24.8,0
2003/9/2 19:15,23.6,0 ,87,0 ,26.2,0 ,75,0 ,25.7,0 ,24.9,0
2003/9/2 19:30,23.2,0 ,88,0 ,26,0 ,73,0 ,25.7,0 ,24.9,0
2003/9/2 19:45,23.2,0 ,88,0 ,26.1,0 ,74,0 ,25.6,0 ,24.9,0
2003/9/2 20:00,23.2,0 ,87,0 ,26,0 ,73,0 ,25.6,0 ,24.9,0
2003/9/2 20:15,23.3,0 ,87,0 ,26.1,0 ,74,0 ,25.6,0 ,25,0
2003/9/2 20:30,23.3,0 ,86,0 ,26,0 ,72,0 ,25.6,0 ,25,0
2003/9/2 20:45,23.4,0 ,86,0 ,26.1,0 ,74,0 ,25.6,0 ,25,0
2003/9/2 21:00,23.4,0 ,85,0 ,25.9,0 ,73,0 ,25.6,0 ,25.1,0
2003/9/2 21:15,23.5,0 ,86,0 ,26.1,0 ,74,0 ,25.5,0 ,25.1,0
2003/9/2 21:30,23.3,0 ,87,0 ,26,0 ,74,0 ,25.6,0 ,25.1,0
2003/9/2 21:45,23.2,0 ,86,0 ,26.3,0 ,75,0 ,25.6,0 ,25.1,0
2003/9/2 22:00,23.3,0 ,85,0 ,26.1,0 ,73,0 ,25.6,0 ,22.3,0
2003/9/2 22:15,23.3,0 ,85,0 ,26.4,0 ,76,0 ,25.7,0 ,22.4,0
2003/9/2 22:30,23.4,0 ,85,0 ,26.3,0 ,74,0 ,25.7,0 ,22.3,0
2003/9/2 22:45,23.5,0 ,86,0 ,26.4,0 ,76,0 ,25.8,0 ,22.4,0
2003/9/2 23:00,23.4,0 ,86,0 ,26.3,0 ,76,0 ,25.9,0 ,22.4,0
2003/9/2 23:15,23.3,0 ,87,0 ,26.4,0 ,77,0 ,25.9,0 ,22.4,0
2003/9/2 23:30,23.3,0 ,87,0 ,26.3,0 ,76,0 ,26,0 ,22.5,0
2003/9/2 23:45,23.3,0 ,87,0 ,26.4,0 ,77,0 ,26,0 ,22.5,0
2003/9/3 0:00,23.3,0 ,87,0 ,26.2,0 ,75,0 ,26,0 ,22.6,0
2003/9/3 0:15,23.4,0 ,87,0 ,26.3,0 ,77,0 ,26,0 ,22.7,0
2003/9/3 0:30,23.4,0 ,86,0 ,26.2,0 ,74,0 ,25.9,0 ,22.7,0
2003/9/3 0:45,23.3,0 ,87,0 ,26.3,0 ,76,0 ,25.9,0 ,22.8,0
2003/9/3 1:00,23.3,0 ,87,0 ,26.1,0 ,74,0 ,25.9,0 ,22.9,0
2003/9/3 1:15,23.3,0 ,87,0 ,26.3,0 ,76,0 ,25.9,0 ,22.9,0
2003/9/3 1:30,23.2,0 ,87,0 ,26.1,0 ,74,0 ,25.9,0 ,23,0
2003/9/3 1:45,23.2,0 ,88,0 ,26.3,0 ,75,0 ,25.8,0 ,23,0
2003/9/3 2:00,23.1,0 ,89,0 ,26.1,0 ,74,0 ,25.8,0 ,23.1,0
2003/9/3 2:15,23,0 ,89,0 ,26.2,0 ,76,0 ,25.8,0 ,23.2,0
2003/9/3 2:30,23,0 ,89,0 ,26.1,0 ,74,0 ,25.8,0 ,23.2,0
2003/9/3 2:45,23,0 ,89,0 ,26.2,0 ,75,0 ,25.8,0 ,23.3,0
2003/9/3 3:00,23,0 ,89,0 ,26.1,0 ,74,0 ,25.8,0 ,23.4,0
2003/9/3 3:15,22.9,0 ,89,0 ,26.2,0 ,75,0 ,25.8,0 ,23.4,0
2003/9/3 3:30,22.9,0 ,89,0 ,26.1,0 ,74,0 ,25.7,0 ,23.5,0
2003/9/3 3:45,22.9,0 ,90,0 ,26.2,0 ,75,0 ,25.7,0 ,23.5,0
2003/9/3 4:00,22.8,0 ,90,0 ,26.1,0 ,73,0 ,25.7,0 ,23.6,0
2003/9/3 4:15,22.9,0 ,91,0 ,26.2,0 ,75,0 ,25.7,0 ,23.6,0
2003/9/3 4:30,22.8,0 ,91,0 ,26,0 ,73,0 ,25.7,0 ,23.7,0
2003/9/3 4:45,22.9,0 ,91,0 ,26.2,0 ,75,0 ,25.7,0 ,23.7,0
2003/9/3 5:00,23,0 ,90,0 ,26,0 ,73,0 ,25.7,0 ,23.8,0
2003/9/3 5:15,23.2,0 ,90,0 ,26.2,0 ,75,0 ,25.7,0 ,23.8,0
2003/9/3 5:30,23.2,0 ,89,0 ,26.1,0 ,74,0 ,25.7,0 ,24,0
2003/9/3 5:45,23.4,0 ,88,0 ,26.3,0 ,76,0 ,25.7,0 ,23.9,0
2003/9/3 6:00,23.5,0 ,86,0 ,26.2,0 ,75,0 ,25.8,0 ,23.9,0
2003/9/3 6:15,24.2,0 ,83,0 ,26.3,0 ,77,0 ,25.8,0 ,24,0
2003/9/3 6:30,24.5,0 ,80,0 ,26.2,0 ,75,0 ,25.8,0 ,24,0
2003/9/3 6:45,24.6,0 ,80,0 ,26.4,0 ,77,0 ,25.9,0 ,24.1,0
2003/9/3 7:00,24.6,0 ,80,0 ,26.2,0 ,75,0 ,25.9,0 ,24.1,0
2003/9/3 7:15,24.7,0 ,79,0 ,26.3,0 ,78,0 ,25.9,0 ,24.1,0
2003/9/3 7:30,24.9,0 ,78,0 ,26.2,0 ,77,0 ,25.9,0 ,24.2,0
2003/9/3 7:45,25,0 ,78,0 ,26.3,0 ,78,0 ,25.9,0 ,23.4,0
2003/9/3 8:00,25.1,0 ,78,0 ,26.2,0 ,76,0 ,25.9,0 ,23.4,0
2003/9/3 8:15,25,0 ,78,0 ,26.3,0 ,78,0 ,25.8,0 ,23.5,0
2003/9/3 8:30,25.3,0 ,77,0 ,26.2,0 ,76,0 ,25.8,0 ,23.5,0
2003/9/3 8:45,25.4,0 ,77,0 ,26.4,0 ,78,0 ,25.8,0 ,23.6,0
2003/9/3 9:00,25.5,0 ,77,0 ,26.3,0 ,76,0 ,25.8,0 ,23.6,0
2003/9/3 9:15,25.7,0 ,75,0 ,26.4,0 ,79,0 ,25.9,0 ,23.7,0
2003/9/3 9:30,26,0 ,73,0 ,26.3,0 ,77,0 ,25.9,0 ,23.7,0
2003/9/3 9:45,26.4,0 ,70,0 ,26.5,0 ,79,0 ,25.9,0 ,23.8,0
2003/9/3 10:00,27.3,0 ,66,0 ,26.5,0 ,77,0 ,25.9,0 ,23.8,0
2003/9/3 10:15,27.3,0 ,66,0 ,26.6,0 ,78,0 ,25.9,0 ,23.9,0
2003/9/3 10:30,27.7,0 ,66,0 ,26.5,0 ,77,0 ,26,0 ,23.9,0
2003/9/3 10:45,28.1,0 ,61,0 ,26.8,0 ,78,0 ,26,0 ,24,0
2003/9/3 11:00,28.4,0 ,56,0 ,26.6,0 ,74,0 ,26,0 ,24,0
2003/9/3 11:15,29,0 ,56,0 ,26.9,0 ,74,0 ,26.1,0 ,24.1,0
2003/9/3 11:30,29.1,0 ,55,0 ,26.7,0 ,71,0 ,26.1,0 ,24.1,0
2003/9/3 11:45,29,0 ,58,0 ,26.9,0 ,74,0 ,26.1,0 ,24.2,0
2003/9/3 12:00,28.6,0 ,60,0 ,26.6,0 ,73,0 ,26.1,0 ,24.2,0
2003/9/3 12:15,28.8,0 ,60,0 ,26.8,0 ,75,0 ,26.1,0 ,24.3,0
2003/9/3 12:30,28.8,0 ,59,0 ,26.7,0 ,73,0 ,26.1,0 ,24.3,0
2003/9/3 12:45,28.6,0 ,60,0 ,26.8,0 ,76,0 ,26.1,0 ,24.3,0
2003/9/3 13:00,28.4,0 ,60,0 ,26.6,0 ,73,0 ,26.1,0 ,24.4,0
2003/9/3 13:15,27.9,0 ,61,0 ,26.8,0 ,76,0 ,26.1,0 ,24.4,0
2003/9/3 13:30,27.9,0 ,62,0 ,26.6,0 ,74,0 ,26.1,0 ,24.5,0
2003/9/3 13:45,27.8,0 ,63,0 ,26.7,0 ,76,0 ,26.1,0 ,24.5,0
2003/9/3 14:00,27.7,0 ,63,0 ,26.6,0 ,74,0 ,26.1,0 ,24.5,0
2003/9/3 14:15,27.8,0 ,61,0 ,26.8,0 ,75,0 ,26.1,0 ,24.6,0
2003/9/3 14:30,27.9,0 ,59,0 ,26.6,0 ,73,0 ,26.1,0 ,24.6,0
2003/9/3 14:45,28,0 ,58,0 ,26.8,0 ,74,0 ,26.1,0 ,24.7,0
2003/9/3 15:00,28.2,0 ,57,0 ,26.6,0 ,73,0 ,26.1,0 ,24.7,0
2003/9/3 15:15,28.1,0 ,58,0 ,26.8,0 ,74,0 ,26.1,0 ,24.7,0
2003/9/3 15:30,27.9,0 ,59,0 ,26.6,0 ,72,0 ,26.1,0 ,24.8,0
2003/9/3 15:45,27.7,0 ,60,0 ,26.7,0 ,73,0 ,26.1,0 ,24.8,0
2003/9/3 16:00,27.6,0 ,60,0 ,26.6,0 ,72,0 ,26.1,0 ,24.8,0
2003/9/3 16:15,27.5,0 ,60,0 ,26.7,0 ,73,0 ,26.1,0 ,24.9,0
2003/9/3 16:30,27.6,0 ,59,0 ,26.6,0 ,71,0 ,26,0 ,24.9,0
2003/9/3 16:45,27.5,0 ,58,0 ,26.7,0 ,73,0 ,26.1,0 ,24.9,0
2003/9/3 17:00,27.6,0 ,57,0 ,26.5,0 ,70,0 ,26,0 ,25,0
2003/9/3 17:15,27.4,0 ,56,0 ,26.7,0 ,71,0 ,26,0 ,25,0
2003/9/3 17:30,27.3,0 ,55,0 ,26.5,0 ,68,0 ,26,0 ,25,0
2003/9/3 17:45,26.9,0 ,57,0 ,26.7,0 ,70,0 ,26,0 ,25.1,0
2003/9/3 18:00,26.5,0 ,58,0 ,26.5,0 ,67,0 ,26,0 ,25.1,0
2003/9/3 18:15,26.3,0 ,58,0 ,26.6,0 ,69,0 ,25.9,0 ,25.2,0
2003/9/3 18:30,26.2,0 ,57,0 ,26.5,0 ,68,0 ,25.9,0 ,25.2,0
2003/9/3 18:45,26.1,0 ,58,0 ,26.7,0 ,71,0 ,25.9,0 ,23.9,0
2003/9/3 19:00,26,0 ,59,0 ,26.5,0 ,69,0 ,26,0 ,23.9,0
2003/9/3 19:15,26,0 ,60,0 ,26.7,0 ,72,0 ,26,0 ,24,0
2003/9/3 19:30,25.9,0 ,60,0 ,26.6,0 ,68,0 ,26.1,0 ,24,0
2003/9/3 19:45,25.8,0 ,60,0 ,26.9,0 ,71,0 ,26.1,0 ,24,0
2003/9/3 20:00,25.7,0 ,60,0 ,26.7,0 ,69,0 ,26.1,0 ,24.1,0
2003/9/3 20:15,25.6,0 ,60,0 ,26.9,0 ,71,0 ,26.1,0 ,24.1,0
2003/9/3 20:30,25.4,0 ,59,0 ,26.7,0 ,70,0 ,26.1,0 ,22.5,0
2003/9/3 20:45,25.2,0 ,59,0 ,26.9,0 ,72,0 ,26.1,0 ,22.6,0
2003/9/3 21:00,25.1,0 ,59,0 ,26.7,0 ,70,0 ,26.1,0 ,22.7,0
2003/9/3 21:15,25,0 ,59,0 ,27,0 ,74,0 ,26.2,0 ,22.6,0
2003/9/3 21:30,25,0 ,58,0 ,26.8,0 ,73,0 ,26.3,0 ,22.6,0
2003/9/3 21:45,24.9,0 ,58,0 ,27,0 ,74,0 ,26.3,0 ,22.7,0
2003/9/3 22:00,24.7,0 ,58,0 ,26.9,0 ,72,0 ,26.3,0 ,22.8,0
2003/9/3 22:15,24.6,0 ,58,0 ,27.1,0 ,74,0 ,26.3,0 ,22.8,0
2003/9/3 22:30,24.5,0 ,58,0 ,26.9,0 ,72,0 ,26.4,0 ,22.8,0
2003/9/3 22:45,24.4,0 ,59,0 ,26.9,0 ,72,0 ,26.3,0 ,22.9,0
2003/9/3 23:00,24.4,0 ,59,0 ,26.7,0 ,71,0 ,26.2,0 ,22.9,0
2003/9/3 23:15,24.3,0 ,59,0 ,26.8,0 ,72,0 ,26.2,0 ,23,0
2003/9/3 23:30,24.2,0 ,59,0 ,26.6,0 ,69,0 ,26.2,0 ,23.1,0
2003/9/3 23:45,24.1,0 ,60,0 ,26.8,0 ,70,0 ,26.1,0 ,23.1,0
2003/9/4 0:00,24,0 ,60,0 ,26.6,0 ,67,0 ,26.1,0 ,23.2,0
2003/9/4 0:15,24,0 ,62,0 ,26.7,0 ,69,0 ,26.1,0 ,23.2,0
2003/9/4 0:30,23.9,0 ,63,0 ,26.5,0 ,66,0 ,26.1,0 ,23.3,0
2003/9/4 0:45,23.6,0 ,66,0 ,26.6,0 ,69,0 ,26,0 ,23.4,0
2003/9/4 1:00,23.5,0 ,68,0 ,26.5,0 ,66,0 ,26,0 ,23.4,0
2003/9/4 1:15,23.2,0 ,69,0 ,26.6,0 ,69,0 ,26,0 ,23.5,0
2003/9/4 1:30,23.2,0 ,69,0 ,26.4,0 ,66,0 ,26,0 ,23.5,0
2003/9/4 1:45,23.3,0 ,68,0 ,26.6,0 ,69,0 ,26,0 ,23.6,0
2003/9/4 2:00,23.4,0 ,66,0 ,26.4,0 ,66,0 ,26,0 ,23.6,0
2003/9/4 2:15,22.9,0 ,68,0 ,26.5,0 ,69,0 ,26,0 ,23.7,0
2003/9/4 2:30,22.9,0 ,70,0 ,26.3,0 ,67,0 ,25.9,0 ,23.7,0
2003/9/4 2:45,22.8,0 ,70,0 ,26.5,0 ,69,0 ,25.9,0 ,23.8,0
2003/9/4 3:00,22.7,0 ,70,0 ,26.3,0 ,66,0 ,25.9,0 ,23.8,0
2003/9/4 3:15,22.7,0 ,71,0 ,26.5,0 ,69,0 ,25.9,0 ,23.9,0
2003/9/4 3:30,22.7,0 ,72,0 ,26.3,0 ,66,0 ,25.9,0 ,23.9,0
2003/9/4 3:45,22.6,0 ,72,0 ,26.4,0 ,69,0 ,25.9,0 ,24,0
2003/9/4 4:00,22.6,0 ,72,0 ,26.3,0 ,66,0 ,25.9,0 ,24,0
2003/9/4 4:15,22.6,0 ,69,0 ,26.4,0 ,69,0 ,25.9,0 ,24.1,0
2003/9/4 4:30,22.7,0 ,65,0 ,26.3,0 ,66,0 ,25.8,0 ,24.1,0
2003/9/4 4:45,22.9,0 ,64,0 ,26.4,0 ,68,0 ,25.8,0 ,24.1,0
2003/9/4 5:00,22.9,0 ,63,0 ,26.3,0 ,69,0 ,25.8,0 ,24.2,0
2003/9/4 5:15,22.8,0 ,62,0 ,26.4,0 ,70,0 ,25.8,0 ,24.2,0
2003/9/4 5:30,22.8,0 ,61,0 ,26.3,0 ,67,0 ,25.8,0 ,24.3,0
2003/9/4 5:45,22.8,0 ,61,0 ,26.5,0 ,68,0 ,25.9,0 ,24.2,0
2003/9/4 6:00,23,0 ,60,0 ,26.2,0 ,62,0 ,25.8,0 ,24.2,0
2003/9/4 6:15,23.6,0 ,56,0 ,26.6,0 ,66,0 ,25.8,0 ,23.6,0
2003/9/4 6:30,24.1,0 ,52,0 ,26.6,0 ,62,0 ,25.9,0 ,23.6,0
2003/9/4 6:45,24.4,0 ,51,0 ,27,0 ,63,0 ,25.9,0 ,23.7,0
2003/9/4 7:00,24.8,0 ,50,0 ,26.6,0 ,59,0 ,25.9,0 ,23.7,0
2003/9/4 7:15,24.8,0 ,48,0 ,26.6,0 ,59,0 ,25.7,0 ,23.8,0
2003/9/4 7:30,25.7,0 ,45,0 ,26.3,0 ,54,0 ,25.5,0 ,22.3,0
2003/9/4 7:45,26.4,0 ,47,0 ,27,0 ,57,0 ,25.5,0 ,22.4,0
2003/9/4 8:00,26.3,0 ,48,0 ,26.9,0 ,57,0 ,25.6,0 ,22.5,0
2003/9/4 8:15,25.5,0 ,46,0 ,27.1,0 ,59,0 ,25.6,0 ,22.5,0
2003/9/4 8:30,26,0 ,43,0 ,27.1,0 ,57,0 ,25.7,0 ,22.6,0
2003/9/4 8:45,27.9,0 ,37,0 ,27.3,0 ,59,0 ,25.7,0 ,22.6,0
2003/9/4 9:00,28.8,0 ,31,0 ,27.1,0 ,55,0 ,25.8,0 ,22.7,0
2003/9/4 9:15,29.7,0 ,29,0 ,27.3,0 ,56,0 ,25.8,0 ,22.8,0
2003/9/4 9:30,30.2,0 ,27,0 ,27.1,0 ,53,0 ,25.8,0 ,22.8,0
2003/9/4 9:45,30.9,0 ,26,0 ,27.3,0 ,54,0 ,25.8,0 ,22.9,0
2003/9/4 10:00,30.3,0 ,25,0 ,27,0 ,52,0 ,25.8,0 ,22.9,0
2003/9/4 10:15,30.4,0 ,24,0 ,27.2,0 ,54,0 ,25.8,0 ,23,0
2003/9/4 10:30,31.1,0 ,22,0 ,27,0 ,50,0 ,25.8,0 ,23,0
2003/9/4 10:45,32,0 ,21,0 ,27.2,0 ,51,0 ,25.8,0 ,23.1,0
2003/9/4 11:00,32.7,0 ,20,0 ,27,0 ,50,0 ,25.8,0 ,23.2,0
2003/9/4 11:15,31,0 ,23,0 ,27.2,0 ,48,0 ,25.8,0 ,23.2,0
2003/9/4 11:30,29.7,0 ,26,0 ,26.9,0 ,44,0 ,25.8,0 ,23.3,0
2003/9/4 11:45,29.4,0 ,25,0 ,27.1,0 ,44,0 ,25.7,0 ,23.3,0
2003/9/4 12:00,29.4,0 ,24,0 ,26.9,0 ,44,0 ,25.7,0 ,23.4,0
2003/9/4 12:15,29.6,0 ,23,0 ,27.1,0 ,44,0 ,25.7,0 ,23.4,0
2003/9/4 12:30,29.9,0 ,22,0 ,26.9,0 ,43,0 ,25.7,0 ,23.5,0
2003/9/4 12:45,29.8,0 ,22,0 ,27.1,0 ,43,0 ,25.7,0 ,23.5,0
2003/9/4 13:00,30,0 ,21,0 ,26.9,0 ,42,0 ,25.7,0 ,23.6,0
2003/9/4 13:15,30,0 ,22,0 ,27.1,0 ,44,0 ,25.7,0 ,23.6,0
2003/9/4 13:30,30,0 ,23,0 ,26.9,0 ,42,0 ,25.8,0 ,23.6,0
2003/9/4 13:45,30,0 ,23,0 ,27.2,0 ,44,0 ,25.8,0 ,23.7,0
2003/9/4 14:00,30,0 ,23,0 ,27,0 ,43,0 ,25.8,0 ,23.7,0
2003/9/4 14:15,30.1,0 ,23,0 ,27.2,0 ,44,0 ,25.8,0 ,23.8,0
2003/9/4 14:30,30.4,0 ,23,0 ,27,0 ,43,0 ,25.8,0 ,23.8,0
2003/9/4 14:45,30.5,0 ,22,0 ,27.2,0 ,47,0 ,25.9,0 ,23.9,0
2003/9/4 15:00,30.6,0 ,21,0 ,27,0 ,45,0 ,25.9,0 ,23.9,0
2003/9/4 15:15,30.7,0 ,23,0 ,27.2,0 ,48,0 ,25.9,0 ,24,0
2003/9/4 15:30,30.8,0 ,25,0 ,27,0 ,46,0 ,25.9,0 ,24,0
2003/9/4 15:45,30.6,0 ,26,0 ,27.3,0 ,49,0 ,25.9,0 ,24,0
2003/9/4 16:00,30.4,0 ,27,0 ,27,0 ,48,0 ,26,0 ,24.1,0
2003/9/4 16:15,30.2,0 ,29,0 ,27.2,0 ,51,0 ,26,0 ,24.1,0
2003/9/4 16:30,30,0 ,30,0 ,27,0 ,49,0 ,26,0 ,24.1,0
2003/9/4 16:45,29.7,0 ,32,0 ,27.1,0 ,52,0 ,26,0 ,24.2,0
2003/9/4 17:00,29.4,0 ,33,0 ,27,0 ,51,0 ,26.1,0 ,24.2,0
2003/9/4 17:15,29.3,0 ,35,0 ,27.1,0 ,53,0 ,26.1,0 ,24.3,0
2003/9/4 17:30,29.2,0 ,36,0 ,26.9,0 ,52,0 ,26.1,0 ,24.3,0
2003/9/4 17:45,29,0 ,38,0 ,27.1,0 ,55,0 ,26.1,0 ,24.3,0
2003/9/4 18:00,28.7,0 ,39,0 ,26.9,0 ,54,0 ,26.1,0 ,24.4,0
2003/9/4 18:15,28.4,0 ,41,0 ,27,0 ,56,0 ,26.2,0 ,24.4,0
2003/9/4 18:30,28.2,0 ,43,0 ,26.9,0 ,56,0 ,26.1,0 ,24.4,0
2003/9/4 18:45,28.1,0 ,45,0 ,27.1,0 ,63,0 ,26.2,0 ,24.5,0
2003/9/4 19:00,27.8,0 ,46,0 ,27,0 ,58,0 ,26.3,0 ,24.5,0
2003/9/4 19:15,27.2,0 ,47,0 ,27.2,0 ,59,0 ,26.2,0 ,24.5,0
2003/9/4 19:30,26.8,0 ,48,0 ,26.9,0 ,56,0 ,26.1,0 ,24.6,0
2003/9/4 19:45,26.6,0 ,50,0 ,27.1,0 ,58,0 ,26,0 ,24.6,0
2003/9/4 20:00,26.2,0 ,51,0 ,26.9,0 ,55,0 ,25.9,0 ,24.6,0
2003/9/4 20:15,26.1,0 ,55,0 ,27.2,0 ,58,0 ,25.9,0 ,24.7,0
2003/9/4 20:30,25.4,0 ,58,0 ,26.9,0 ,57,0 ,26,0 ,24.7,0
2003/9/4 20:45,25.3,0 ,58,0 ,27.3,0 ,60,0 ,26.1,0 ,24.7,0
2003/9/4 21:00,25.2,0 ,57,0 ,27.2,0 ,60,0 ,26.1,0 ,24.8,0
2003/9/4 21:15,25.3,0 ,59,0 ,27.3,0 ,61,0 ,26.1,0 ,22.6,0
2003/9/4 21:30,24.9,0 ,60,0 ,27.1,0 ,60,0 ,26.2,0 ,22.7,0
2003/9/4 21:45,24.8,0 ,59,0 ,27.2,0 ,63,0 ,26.3,0 ,22.9,0
2003/9/4 22:00,24.3,0 ,58,0 ,27,0 ,59,0 ,26.3,0 ,23,0
2003/9/4 22:15,23.9,0 ,61,0 ,27.1,0 ,61,0 ,26.3,0 ,23,0
2003/9/4 22:30,23.6,0 ,64,0 ,26.9,0 ,58,0 ,26.3,0 ,23.2,0
2003/9/4 22:45,23.5,0 ,64,0 ,27,0 ,60,0 ,26.3,0 ,23.2,0
2003/9/4 23:00,23.3,0 ,63,0 ,26.8,0 ,58,0 ,26.2,0 ,23.2,0
2003/9/4 23:15,23.2,0 ,64,0 ,26.9,0 ,60,0 ,26.2,0 ,23.3,0
2003/9/4 23:30,22.8,0 ,64,0 ,26.7,0 ,58,0 ,26.1,0 ,23.4,0
2003/9/4 23:45,22.6,0 ,66,0 ,26.8,0 ,57,0 ,26.1,0 ,23.4,0
2003/9/5 0:00,22.3,0 ,68,0 ,26.6,0 ,55,0 ,26.1,0 ,23.4,0
2003/9/5 0:15,22.2,0 ,68,0 ,26.6,0 ,57,0 ,26,0 ,23.5,0
2003/9/5 0:30,22.2,0 ,67,0 ,26.6,0 ,56,0 ,26,0 ,23.5,0
2003/9/5 0:45,22,0 ,68,0 ,26.7,0 ,58,0 ,25.9,0 ,23.6,0
2003/9/5 1:00,21.8,0 ,69,0 ,26.6,0 ,55,0 ,25.9,0 ,23.6,0
2003/9/5 1:15,21.4,0 ,69,0 ,26.6,0 ,57,0 ,25.9,0 ,23.7,0
2003/9/5 1:30,21.3,0 ,68,0 ,26.5,0 ,54,0 ,25.9,0 ,23.7,0
2003/9/5 1:45,21.1,0 ,68,0 ,26.6,0 ,56,0 ,25.8,0 ,23.8,0
2003/9/5 2:00,20.8,0 ,68,0 ,26.5,0 ,53,0 ,25.8,0 ,23.8,0
2003/9/5 2:15,20.6,0 ,69,0 ,26.5,0 ,54,0 ,25.7,0 ,23.9,0
2003/9/5 2:30,20.5,0 ,70,0 ,26.4,0 ,52,0 ,25.7,0 ,23.9,0
2003/9/5 2:45,20.5,0 ,69,0 ,26.5,0 ,54,0 ,25.7,0 ,23.9,0
2003/9/5 3:00,20.4,0 ,68,0 ,26.3,0 ,53,0 ,25.6,0 ,24,0
2003/9/5 3:15,20.1,0 ,68,0 ,26.4,0 ,53,0 ,25.6,0 ,24,0
2003/9/5 3:30,20,0 ,68,0 ,26.2,0 ,51,0 ,25.6,0 ,24,0
2003/9/5 3:45,19.9,0 ,68,0 ,26.4,0 ,53,0 ,25.5,0 ,24.1,0
2003/9/5 4:00,19.8,0 ,67,0 ,26.2,0 ,50,0 ,25.5,0 ,24.1,0
2003/9/5 4:15,19.7,0 ,69,0 ,26.4,0 ,52,0 ,25.4,0 ,24.1,0
2003/9/5 4:30,19.3,0 ,70,0 ,26.2,0 ,50,0 ,25.4,0 ,24.2,0
2003/9/5 4:45,19.3,0 ,70,0 ,26.3,0 ,53,0 ,25.3,0 ,24.2,0
2003/9/5 5:00,19.2,0 ,70,0 ,26.1,0 ,49,0 ,25.3,0 ,24.2,0
2003/9/5 5:15,19,0 ,71,0 ,26.3,0 ,51,0 ,25.3,0 ,24.2,0
2003/9/5 5:30,18.9,0 ,72,0 ,26.1,0 ,49,0 ,25.3,0 ,24.4,0
2003/9/5 5:45,18.8,0 ,72,0 ,26.2,0 ,52,0 ,25.2,0 ,24.4,0
2003/9/5 6:00,19.4,0 ,71,0 ,26.1,0 ,51,0 ,25.3,0 ,24.4,0
2003/9/5 6:15,20.1,0 ,68,0 ,26.4,0 ,54,0 ,25.3,0 ,24.5,0
2003/9/5 6:30,20.8,0 ,64,0 ,26.3,0 ,52,0 ,25.3,0 ,24.5,0
2003/9/5 6:45,21.1,0 ,64,0 ,26.7,0 ,55,0 ,25.4,0 ,24.5,0
2003/9/5 7:00,21.4,0 ,63,0 ,26.4,0 ,50,0 ,25.4,0 ,23.8,0